Volk, WI

10:18 PM CDT on September 19, 2017 (GMT -0500)
Volk

Weather History for KVOK - June, 2013

Change the Weather History Date:

Saturday, June 22, 2013

  Actual Average Record
Temperature  
Mean Temperature 72 °F -  
Max Temperature 81 °F 76 °F 89 °F (1999)
Min Temperature 64 °F 62 °F 50 °F (2012)
Cooling Degree Days 7    
Growing Degree Days 22 (Base 50)    
Moisture  
Dew Point 67 °F    
Average Humidity 96    
Maximum Humidity 100    
Minimum Humidity 66    
Precipitation  
Precipitation 1.00 in - - ()
Sea Level Pressure  
Sea Level Pressure 29.99 in    
Wind  
Wind Speed 8 mph (ESE)    
Max Wind Speed 24 mph    
Max Gust Speed 37 mph    
Visibility 8 miles    
Events Rain , Thunderstorm    
Averages and records for this station are not official NWS values.
T = Trace of Precipitation, MM = Missing Value Source: NWS Daily Summary

Daily Weather History Graph

Daily Weather History Graph

Search for Another Location

Airport or City:

Trip Planner

Search our weather history database for the weather conditions in past years. The results will help you decide how hot, cold, wet, or windy it might be!

Date:

Astronomy

Jun. 22, 2013 Rise Set
Actual Time 5:18 AM CDT 8:47 PM CDT
Civil Twilight 4:42 AM CDT 9:23 PM CDT
Nautical Twilight 3:54 AM CDT 10:11 PM CDT
Astronomical Twilight 2:54 AM CDT 11:12 PM CDT
Moon 8:00 PM CDT (6/22) 4:33 AM CDT (6/22)
Length of Visible Light 16h 41m
Length of Day
15h 28m
Waxing Gibbous, 99% of the Moon is Illuminated
Jun 22
Waxing Gibbous
Jun 23
Full
Jun 29
Last Quarter
Jul 8
New
Jul 15
First Quarter

Hourly Weather History & Observations

Time (CDT) Temp. Heat Index Dew Point Humidity Pressure Visibility Wind Dir Wind Speed Gust Speed Precip Events Conditions
12:58 AM 69.3 °F - 66.0 °F 89% 29.94 in 10.0 mi SSE 11.5 mph - N/A   Partly Cloudy
1:58 AM 66.7 °F - 65.8 °F 97% 29.94 in 10.0 mi ESE 4.6 mph - N/A   Clear
2:58 AM 66.4 °F - 66.4 °F 100% 29.95 in 10.0 mi East 6.9 mph - N/A   Clear
3:45 AM 68.0 °F - 66.2 °F 94% 30.00 in 10.0 mi NE 2.3 mph - N/A   Light Drizzle
3:53 AM 68.0 °F - 66.2 °F 94% 30.00 in 10.0 mi East 3.5 mph - N/A Rain , Thunderstorm Light Thunderstorms and Rain
3:58 AM 67.3 °F - 66.9 °F 99% 29.99 in 10.0 mi NNE 2.3 mph - 0.01 in Rain , Thunderstorm Light Thunderstorms and Rain
4:03 AM 66.2 °F - 66.2 °F 100% 29.99 in 8.0 mi NE 3.5 mph - N/A Rain , Thunderstorm Thunderstorms and Rain
4:08 AM 66.2 °F - 66.2 °F 100% 29.98 in 9.0 mi NE 5.8 mph - N/A Rain Light Rain
4:13 AM 66.2 °F - 66.2 °F 100% 29.97 in 10.0 mi ENE 4.6 mph - N/A Rain Light Rain
4:18 AM 66.2 °F - 66.2 °F 100% 29.98 in 10.0 mi NE 5.8 mph - N/A Rain Light Rain
4:38 AM 66.2 °F - 66.2 °F 100% 29.96 in 6.0 mi NE 11.5 mph - N/A Rain , Thunderstorm Light Rain
4:48 AM 66.2 °F - 66.2 °F 100% 29.95 in 8.0 mi East 10.4 mph 18.4 mph N/A Rain Light Rain
4:53 AM 66.2 °F - 66.2 °F 100% 29.99 in 10.0 mi Variable 4.6 mph 18.4 mph N/A Rain Light Rain
4:58 AM 68.0 °F - 68.0 °F 100% 29.97 in 10.0 mi East 6.9 mph - 0.09 in Rain Light Rain
5:13 AM 68.0 °F - 68.0 °F 100% 30.07 in 10.0 mi WSW 11.5 mph - N/A Rain Light Rain
5:23 AM 68.0 °F - 68.0 °F 100% 30.08 in 6.0 mi West 9.2 mph - N/A Rain Light Rain
5:28 AM 68.0 °F - 68.0 °F 100% 30.08 in 4.0 mi West 8.1 mph - N/A Rain Rain
5:33 AM 68.0 °F - 68.0 °F 100% 30.07 in 4.0 mi West 4.6 mph - N/A Rain Light Rain
5:53 AM 68.0 °F - 68.0 °F 100% 30.05 in 10.0 mi NE 4.6 mph - N/A   Mostly Cloudy
5:58 AM 68.0 °F - 68.0 °F 100% 30.06 in 10.0 mi NNE 3.5 mph - 0.06 in   Scattered Clouds
5:59 AM 68.0 °F - 68.0 °F 100% 30.06 in 10.0 mi NNE 4.6 mph - N/A Rain Light Rain
6:06 AM 68.0 °F - 68.0 °F 100% 30.06 in 10.0 mi NE 4.6 mph - N/A Rain Light Rain
6:29 AM 68.0 °F - 68.0 °F 100% 30.03 in 10.0 mi ESE 8.1 mph - N/A   Partly Cloudy
6:37 AM 68.0 °F - 68.0 °F 100% 30.01 in 10.0 mi ESE 10.4 mph - N/A   Light Drizzle
6:57 AM 68.0 °F - 68.0 °F 100% 30.00 in 9.0 mi SE 12.7 mph - N/A Rain , Thunderstorm Light Rain
6:58 AM 67.3 °F - 67.3 °F 100% 30.00 in 9.0 mi SE 12.7 mph - 0.02 in Rain , Thunderstorm Light Rain
6:59 AM 68.0 °F - 68.0 °F 100% 30.01 in 9.0 mi SE 11.5 mph - N/A Rain , Thunderstorm Light Rain
7:04 AM 68.0 °F - 68.0 °F 100% 30.02 in 9.0 mi ESE 10.4 mph - N/A Rain , Thunderstorm Light Rain
7:10 AM 68.0 °F - 68.0 °F 100% 30.03 in 9.0 mi SSE 11.5 mph - N/A Rain , Thunderstorm Light Thunderstorms and Rain
7:20 AM 68.0 °F - 68.0 °F 100% 30.01 in 8.0 mi SSE 16.1 mph 21.9 mph N/A Rain , Thunderstorm Light Thunderstorms and Rain
7:24 AM 68.0 °F - 68.0 °F 100% 30.01 in 7.0 mi SSE 15.0 mph 21.9 mph N/A Thunderstorm Thunderstorm
7:25 AM 68.0 °F - 68.0 °F 100% 30.00 in 7.0 mi SE 13.8 mph 21.9 mph N/A   Overcast
7:26 AM 68.0 °F - 68.0 °F 100% 30.00 in 7.0 mi SE 12.7 mph 21.9 mph N/A Rain Light Rain
7:27 AM 68.0 °F - 68.0 °F 100% 30.00 in 7.0 mi SE 12.7 mph 21.9 mph N/A Rain , Thunderstorm Light Thunderstorms and Rain
7:42 AM 68.0 °F - 68.0 °F 100% 30.00 in 10.0 mi SE 6.9 mph - N/A Rain , Thunderstorm Light Rain
7:50 AM 68.0 °F - 68.0 °F 100% 30.01 in 9.0 mi Variable 2.3 mph - N/A Rain Light Rain
7:55 AM 68.0 °F - 68.0 °F 100% 30.00 in 9.0 mi Variable 3.5 mph - N/A Rain Light Rain
7:58 AM 68.0 °F - 68.0 °F 100% 30.01 in 9.0 mi Variable 2.3 mph - 0.10 in Rain Light Rain
8:03 AM 68.0 °F - 68.0 °F 100% 30.03 in 10.0 mi West 6.9 mph - N/A Rain Light Rain
8:06 AM 68.0 °F - 68.0 °F 100% 30.03 in 10.0 mi West 4.6 mph - N/A Rain Light Rain
8:27 AM 68.0 °F - 68.0 °F 100% 30.11 in 5.0 mi WSW 11.5 mph 25.3 mph N/A Rain , Thunderstorm Thunderstorms and Rain
8:37 AM 68.0 °F - 68.0 °F 100% 30.07 in 3.0 mi NE 4.6 mph - N/A Rain , Thunderstorm Thunderstorms and Rain
8:42 AM 68.0 °F - 68.0 °F 100% 30.04 in 4.0 mi East 8.1 mph - N/A Rain Light Rain
8:58 AM 68.2 °F - 68.2 °F 100% 30.02 in 8.0 mi SE 5.8 mph - 0.10 in Rain Light Rain
9:28 AM 68.0 °F - 68.0 °F 100% 30.00 in 10.0 mi South 6.9 mph - N/A   Clear
9:58 AM 68.0 °F - 67.1 °F 97% 29.99 in 10.0 mi Variable 5.8 mph - 0.01 in   Clear
10:58 AM 68.2 °F - 65.8 °F 92% 29.94 in 10.0 mi Variable 2.3 mph - N/A   Clear
11:58 AM 69.8 °F - 66.7 °F 90% 29.96 in 10.0 mi South 2.3 mph - N/A   Clear
12:58 PM 74.5 °F - 67.3 °F 78% 29.97 in 10.0 mi SSW 4.6 mph - N/A   Mostly Cloudy
1:58 PM 77.7 °F - 68.2 °F 72% 29.95 in 10.0 mi ESE 5.8 mph - N/A   Partly Cloudy
2:58 PM 80.8 °F 83.6 °F 68.5 °F 66% 29.94 in 10.0 mi Variable 4.6 mph - N/A   Partly Cloudy
3:58 PM 78.1 °F - 69.3 °F 74% 29.96 in 10.0 mi East 10.4 mph - N/A   Overcast
4:58 PM 75.9 °F - 69.4 °F 80% 29.96 in 10.0 mi East 9.2 mph - N/A   Mostly Cloudy
5:58 PM 75.6 °F - 68.7 °F 79% 29.96 in 10.0 mi East 9.2 mph - N/A   Partly Cloudy
6:58 PM 75.9 °F - 69.1 °F 79% 29.91 in 10.0 mi East 11.5 mph - N/A   Partly Cloudy
7:58 PM 73.9 °F - 68.7 °F 84% 29.91 in 10.0 mi ESE 8.1 mph - N/A   Scattered Clouds
8:47 PM 73.4 °F - 68.0 °F 83% 29.93 in 10.0 mi SSE 6.9 mph - N/A Rain Light Rain
8:49 PM 73.4 °F - 69.8 °F 88% 29.93 in 9.0 mi SSE 6.9 mph - N/A Rain Light Rain
8:52 PM 73.4 °F - 69.8 °F 88% 29.99 in 9.0 mi West 24.2 mph 34.5 mph N/A Rain Light Rain
8:58 PM 72.9 °F - 67.1 °F 82% 29.98 in 5.0 mi West 18.4 mph 36.8 mph 0.01 in Rain , Thunderstorm Rain
9:03 PM 66.2 °F - 62.6 °F 88% 30.00 in 1.0 mi WSW 9.2 mph 36.8 mph N/A Rain , Thunderstorm Heavy Rain
9:08 PM 64.4 °F - 62.6 °F 94% 29.98 in 0.8 mi South 11.5 mph 21.9 mph N/A Rain , Thunderstorm Heavy Rain
9:09 PM 64.4 °F - 62.6 °F 94% 29.96 in 1.0 mi SE 12.7 mph 21.9 mph N/A Rain , Thunderstorm Heavy Thunderstorms and Rain
9:14 PM 64.4 °F - 64.4 °F 100% 29.96 in 2.0 mi Variable 5.8 mph 18.4 mph N/A Rain , Thunderstorm Thunderstorms and Rain
9:19 PM 64.4 °F - 64.4 °F 100% 29.94 in 2.5 mi ENE 9.2 mph - N/A Rain , Thunderstorm Heavy Thunderstorms and Rain
9:24 PM 64.4 °F - 64.4 °F 100% 29.93 in 3.0 mi East 6.9 mph - N/A Rain Rain
9:29 PM 64.4 °F - 64.4 °F 100% 29.93 in 5.0 mi NE 1.2 mph - N/A Rain Rain
9:39 PM 64.4 °F - 64.4 °F 100% 29.96 in 10.0 mi South 6.9 mph - N/A Rain Light Rain
9:56 PM 64.4 °F - 64.4 °F 100% 29.97 in 10.0 mi Calm Calm - N/A Rain , Thunderstorm Light Rain
9:58 PM 64.4 °F - 64.4 °F 100% 29.98 in 10.0 mi Variable 2.3 mph - 0.49 in Rain , Thunderstorm Light Rain
10:23 PM 64.4 °F - 64.4 °F 100% 29.99 in 9.0 mi SE 9.2 mph - N/A Rain , Thunderstorm Light Rain
10:28 PM 66.2 °F - 66.2 °F 100% 29.98 in 8.0 mi SE 9.2 mph - N/A Rain , Thunderstorm Light Rain
10:38 PM 66.2 °F - 66.2 °F 100% 29.99 in 10.0 mi SSE 4.6 mph - N/A Rain Light Rain
10:43 PM 66.2 °F - 66.2 °F 100% 30.00 in 10.0 mi South 8.1 mph - N/A Rain Light Rain
10:53 PM 66.2 °F - 66.2 °F 100% 30.00 in 9.0 mi SSE 10.4 mph - N/A Rain , Thunderstorm Light Rain
10:58 PM 65.7 °F - 65.7 °F 100% 30.00 in 7.0 mi SE 12.7 mph - 0.09 in Rain , Thunderstorm Rain
11:20 PM 66.2 °F - 66.2 °F 100% 30.03 in 10.0 mi South 8.1 mph - N/A Rain , Thunderstorm Light Thunderstorms and Rain
11:35 PM 66.2 °F - 66.2 °F 100% 30.00 in 10.0 mi SE 9.2 mph - N/A   Light Drizzle
11:39 PM 66.2 °F - 66.2 °F 100% 29.98 in 10.0 mi SE 10.4 mph - N/A   Clear
11:49 PM 66.2 °F - 66.2 °F 100% 29.99 in 10.0 mi SSE 9.2 mph - N/A   Light Drizzle
11:58 PM 66.0 °F - 65.7 °F 99% 29.99 in 10.0 mi SSE 8.1 mph - 0.02 in   Light Drizzle